Location: Newark
(41.5333°N, 14.5500°E)
Time: 00:23:46
(UTC+00:00)

Hubble Space Telescope - Pass Details

Date: 30 January 2020
Orbit: 536 x 540 km, 28.5° (Epoch: 16 February)

Event Time Altitude Azimuth Distance (km) Brightness Sun altitude
Rises 05:36:00 0° 221° (SW) 2,664 4.1 -7.9°
Reaches altitude 10° 05:40:09 10° 180° (S) 1,776 3.7 -7.2°
Maximum altitude 05:40:57 11° 169° (S) 1,746 3.8 -7.0°
Drops below altitude 10° 05:41:45 10° 158° (SSE) 1,777 4.0 -6.9°
Sets 05:45:54 0° 117° (ESE) 2,670 6.6 -6.1°
